H1 CPF 2 NER 2021 8 28 9 240 01 glonass135 H2 1600801 9135 41330 2021 8 28 0 0 0 2021 8 31 23 45 0 900 1 1 0 0 0 1 H9 10 0 59454 0.00000 0 -12963148.651 -17163036.427 -13671430.009 10 0 59454 900.00000 0 -11524160.803 -15998878.062 -16150676.431 10 0 59454 1800.00000 0 -9754936.954 -14802496.523 -18315464.898 10 0 59454 2700.00000 0 -7682120.995 -13633818.692 -20123760.307 10 0 59454 3600.00000 0 -5344515.908 -12548044.684 -21540506.114 10 0 59454 4500.00000 0 -2791707.174 -11593298.221 -22538298.679 10 0 59454 5400.00000 0 -82236.887 -10808597.360 -23097909.275 10 0 59454 6300.00000 0 2718595.168 -10222230.352 -23208644.640 10 0 59454 7200.00000 0 5541211.584 -9850603.749 -22868540.291 10 0 59454 8100.00000 0 8314415.521 -9697609.652 -22084384.110 10 0 59454 9000.00000 0 10968116.958 -9754537.025 -20871570.880 10 0 59454 9900.00000 0 13436014.442 -10000529.166 -19253791.573 10 0 59454 10800.00000 0 15658122.075 -10403566.573 -17262564.156 10 0 59454 11700.00000 0 17583038.179 -10921932.671 -14936615.437 10 0 59454 12600.00000 0 19169862.829 -11506099.877 -12321126.210 10 0 59454 13500.00000 0 20389686.279 -12100956.101 -9466854.295 10 0 59454 14400.00000 0 21226587.995 -12648277.808 -6429152.250 10 0 59454 15300.00000 0 21678106.299 -13089345.580 -3266898.527 10 0 59454 16200.00000 0 21755160.483 -13367592.319 -41362.382 10 0 59454 17100.00000 0 21481429.947 -13431172.915 3184976.040 10 0 59454 18000.00000 0 20892217.193 -13235347.486 6349627.946 10 0 59454 18900.00000 0 20032842.947 -12744578.093 9391297.817 10 0 59454 19800.00000 0 18956640.850 -11934250.628 12251062.307 10 0 59454 20700.00000 0 17722635.732 -10791949.201 14873503.820 10 0 59454 21600.00000 0 16393002.454 -9318228.740 17207777.506 10 0 59454 22500.00000 0 15030411.242 -7526852.264 19208591.636 10 0 59454 23400.00000 0 13695370.190 -5444481.378 20837082.862 10 0 59454 24300.00000 0 12443675.550 -3109831.042 22061569.951 10 0 59454 25200.00000 0 11324076.085 -572321.711 22858171.646 10 0 59454 26100.00000 0 10376248.935 2109717.193 23211276.711 10 0 59454 27000.00000 0 9629171.636 4871219.971 23113856.827 10 0 59454 27900.00000 0 9099958.687 7642845.285 22567615.703 10 0 59454 28800.00000 0 8793211.888 10353624.138 21582970.625 10 0 59454 29700.00000 0 8700912.426 12933686.544 20178865.664 10 0 59454 30600.00000 0 8802860.057 15316954.412 18382418.847 10 0 59454 31500.00000 0 9067641.851 17443688.817 16228408.769 10 0 59454 32400.00000 0 9454090.466 19262785.487 13758609.329 10 0 59454 33300.00000 0 9913171.008 20733722.215 11020984.410 10 0 59454 34200.00000 0 10390216.976 21828076.007 8068757.501 10 0 59454 35100.00000 0 10827420.485 22530545.726 4959374.056 10 0 59454 36000.00000 0 11166470.626 22839436.608 1753376.983 10 0 59454 36900.00000 0 11351227.037 22766585.925 -1486782.104 10 0 59454 37800.00000 0 11330313.843 22336732.917 -4697971.590 10 0 59454 38700.00000 0 11059522.312 21586359.993 -7817623.293 10 0 59454 39600.00000 0 10503918.638 20562054.935 -10784964.721 10 0 59454 40500.00000 0 9639565.913 19318464.440 -13542214.721 10 0 59454 41400.00000 0 8454786.044 17915926.779 -16035717.924 10 0 59454 42300.00000 0 6950907.194 16417884.920 -18216994.847 10 0 59454 43200.00000 0 5142464.525 14888190.513 -20043686.700 10 0 59454 44100.00000 0 3056845.368 13388413.282 -21480376.433 10 0 59454 45000.00000 0 733393.701 11975269.668 -22499270.384 10 0 59454 45900.00000 0 -1777988.493 10698278.779 -23080728.056 10 0 59454 46800.00000 0 -4418684.326 9597743.563 -23213630.804 10 0 59454 47700.00000 0 -7123572.478 8703140.849 -22895583.445 10 0 59454 48600.00000 0 -9823512.967 8031986.242 -22132946.170 10 0 59454 49500.00000 0 -12448005.082 7589219.637 -20940697.282 10 0 59454 50400.00000 0 -14927907.381 7367135.197 -19342130.412 10 0 59454 51300.00000 0 -17198107.595 7345856.760 -17368392.865 10 0 59454 52200.00000 0 -19200032.565 7494337.009 -15057874.483 10 0 59454 53100.00000 0 -20883895.067 7771836.985 -12455459.142 10 0 59454 54000.00000 0 -22210585.553 8129822.681 -9611653.401 10 0 59454 54900.00000 0 -23153131.504 8514198.236 -6581608.928 10 0 59454 55800.00000 0 -23697664.968 8867781.423 -3424057.445 10 0 59454 56700.00000 0 -23843859.293 9132917.100 -200178.356 10 0 59454 57600.00000 0 -23604817.898 9254118.708 3027579.482 10 0 59454 58500.00000 0 -23006420.622 9180626.739 6196699.459 10 0 59454 59400.00000 0 -22086155.551 8868776.649 9245799.672 10 0 59454 60300.00000 0 -20891485.466 8284076.487 12115813.488 10 0 59454 61200.00000 0 -19477817.219 7402906.722 14751125.841 10 0 59454 62100.00000 0 -17906158.695 6213770.220 17100643.954 10 0 59454 63000.00000 0 -16240560.822 4718038.953 19118782.396 10 0 59454 63900.00000 0 -14545450.944 2930164.827 20766343.883 10 0 59454 64800.00000 0 -12882968.263 877344.029 22011279.305 10 0 59454 65700.00000 0 -11310411.990 -1401353.190 22829312.549 10 0 59454 66600.00000 0 -9877908.253 -3856353.210 23204418.024 10 0 59454 67500.00000 0 -8626392.848 -6429395.479 23129141.440 10 0 59454 68400.00000 0 -7585993.961 -9055721.366 22604757.069 10 0 59454 69300.00000 0 -6774882.660 -11666546.312 21641257.544 10 0 59454 70200.00000 0 -6198639.590 -14191714.050 20257175.307 10 0 59454 71100.00000 0 -5850164.911 -16562423.661 18479237.804 10 0 59454 72000.00000 0 -5710135.919 -18713916.331 16341861.800 10 0 59454 72900.00000 0 -5747993.613 -20588009.953 13886495.329 10 0 59454 73800.00000 0 -5923417.085 -22135375.313 11160818.924 10 0 59454 74700.00000 0 -6188223.659 -23317457.869 8217821.021 10 0 59454 75600.00000 0 -6488614.210 -24107963.706 5114765.152 10 0 59454 76500.00000 0 -6767667.999 -24493846.389 1912069.216 10 0 59454 77400.00000 0 -6967980.249 -24475752.412 -1327880.635 10 0 59454 78300.00000 0 -7034329.229 -24067906.099 -4541957.321 10 0 59454 79200.00000 0 -6916258.027 -23297438.763 -7667536.138 10 0 59454 80100.00000 0 -6570459.779 -22203190.823 -10643728.165 10 0 59454 81000.00000 0 -5962863.512 -20834038.261 -13412578.299 10 0 59454 81900.00000 0 -5070330.701 -19246815.119 -15920203.276 10 0 59454 82800.00000 0 -3881889.565 -17503920.923 -18117846.436 10 0 59454 83700.00000 0 -2399454.053 -15670715.103 -19962828.155 10 0 59454 84600.00000 0 -637996.645 -13812809.074 -21419373.393 10 0 59454 85500.00000 0 1374832.497 -11993370.535 -22459300.499 10 0 59455 0.00000 0 3599624.016 -10270553.322 -23062558.733 10 0 59455 900.00000 0 5986627.259 -8695160.365 -23217605.049 10 0 59455 1800.00000 0 8477607.258 -7308636.145 -22921614.014 10 0 59455 2700.00000 0 11008064.409 -6141472.564 -22180518.065 10 0 59455 3600.00000 0 13509723.571 -5212091.442 -21008878.505 10 0 59455 4500.00000 0 15913189.585 -4526249.632 -19429590.679 10 0 59455 5400.00000 0 18150659.235 -4076988.829 -17473429.873 10 0 59455 6300.00000 0 20158577.645 -3845130.241 -15178447.178 10 0 59455 7200.00000 0 21880129.518 -3800291.438 -12589227.359 10 0 59455 8100.00000 0 23267462.692 -3902381.149 -9756023.092 10 0 59455 9000.00000 0 24283552.653 -4103507.948 -6733782.150 10 0 59455 9900.00000 0 24903631.408 -4350221.835 -3581086.180 10 0 59455 10800.00000 0 25116122.301 -4585993.883 -359021.170 10 0 59455 11700.00000 0 24923042.704 -4753829.426 2869998.989 10 0 59455 12600.00000 0 24339858.479 -4798904.765 6043433.516 10 0 59455 13500.00000 0 23394796.799 -4671116.458 9099817.619 10 0 59455 14400.00000 0 22127646.231 -4327435.924 11979944.597 10 0 59455 15300.00000 0 20588094.131 -3733970.184 14628004.775 10 0 59455 16200.00000 0 18833670.468 -2867641.749 16992659.904 10 0 59455 17100.00000 0 16927383.338 -1717416.337 19028032.871 10 0 59455 18000.00000 0 14935144.131 -285025.859 20694594.043 10 0 59455 18900.00000 0 12923088.965 1414845.149 21959927.602 10 0 59455 19800.00000 0 10954907.160 3354919.384 22799363.331 10 0 59455 20700.00000 0 9089287.477 5496219.981 23196461.632 10 0 59455 21600.00000 0 7377587.892 7789462.180 23143342.205 10 0 59455 22500.00000 0 5861825.675 10176887.788 22640849.442 10 0 59455 23400.00000 0 4573071.517 12594468.127 21698550.519 10 0 59455 24300.00000 0 3530314.790 14974385.569 20334565.068 10 0 59455 25200.00000 0 2739847.646 17247691.703 18575228.460 10 0 59455 26100.00000 0 2195194.135 19347032.072 16454593.850 10 0 59455 27000.00000 0 1877587.695 21209324.093 14013781.368 10 0 59455 27900.00000 0 1756977.161 22778275.989 11300185.952 10 0 59455 28800.00000 0 1793519.041 24006640.542 8366558.545 10 0 59455 29700.00000 0 1939492.771 24858108.223 5269978.163 10 0 59455 30600.00000 0 2141557.343 25308759.046 2070734.969 10 0 59455 31500.00000 0 2343252.804 25348011.007 -1168853.150 10 0 59455 32400.00000 0 2487639.190 24979024.357 -4385666.469 10 0 59455 33300.00000 0 2519959.383 24218544.179 -7517026.521 10 0 59455 34200.00000 0 2390211.186 23096187.850 -10501930.583 10 0 59455 35100.00000 0 2055517.748 21653207.851 -13282252.048 10 0 59455 36000.00000 0 1482194.305 19940782.840 -15803881.966 10 0 59455 36900.00000 0 647422.336 18017910.010 -18017788.456 10 0 59455 37800.00000 0 -459540.615 15948988.602 -19880972.772 10 0 59455 38700.00000 0 -1836667.246 13801197.158 -21357303.342 10 0 59455 39600.00000 0 -3469012.426 11641775.454 -22418211.763 10 0 59455 40500.00000 0 -5329117.045 9535325.456 -23043238.025 10 0 59455 41400.00000 0 -7377946.736 7541244.118 -23220415.367 10 0 59455 42300.00000 0 -9566325.890 5711394.796 -22946488.472 10 0 59455 43200.00000 0 -11836806.865 4088113.308 -22226962.041 10 0 59455 44100.00000 0 -14125896.288 2702630.200 -21075979.966 10 0 59455 45000.00000 0 -16366545.655 1573973.093 -19516038.471 10 0 59455 45900.00000 0 -18490802.800 708392.661 -17577539.575 10 0 59455 46800.00000 0 -20432514.304 99333.889 -15298194.021 10 0 59455 47700.00000 0 -22129966.976 -272048.387 -12722285.556 10 0 59455 48600.00000 0 -23528359.211 -435853.249 -9899810.845 10 0 59455 49500.00000 0 -24582000.225 -431921.897 -6885511.482 10 0 59455 50400.00000 0 -25256146.323 -307914.978 -3737816.630 10 0 59455 51300.00000 0 -25528398.544 -117060.723 -517716.362 10 0 59455 52200.00000 0 -25389604.086 84330.888 2712412.995 10 0 59455 53100.00000 0 -24844224.426 239483.126 5890009.150 10 0 59455 54000.00000 0 -23910155.133 293786.557 8953527.152 10 0 59455 54900.00000 0 -22618004.956 197341.306 11843622.991 10 0 59455 55800.00000 0 -21009864.100 -92699.444 14504295.113 10 0 59455 56700.00000 0 -19137612.671 -610083.452 16883962.430 10 0 59455 57600.00000 0 -17060839.108 -1377797.351 18936458.588 10 0 59455 58500.00000 0 -14844454.567 -2406859.068 20621923.773 10 0 59455 59400.00000 0 -12556101.655 -3695616.566 21907577.277 10 0 59455 60300.00000 0 -10263464.332 -5229583.893 22768356.205 10 0 59455 61200.00000 0 -8031590.059 -6981823.294 23187407.964 10 0 59455 62100.00000 0 -5920334.769 -8913859.613 23156426.829 10 0 59455 63000.00000 0 -3982036.297 -10977091.138 22675827.513 10 0 59455 63900.00000 0 -2259512.851 -13114640.163 21754751.552 10 0 59455 64800.00000 0 -784469.711 -15263568.117 20410905.250 10 0 59455 65700.00000 0 423619.317 -17357364.436 18670231.054 10 0 59455 66600.00000 0 1358108.675 -19328606.313 16566417.342 10 0 59455 67500.00000 0 2025230.872 -21111678.739 14140254.866 10 0 59455 68400.00000 0 2443597.041 -22645440.952 11438851.202 10 0 59455 69300.00000 0 2643169.181 -23875726.967 8514717.766 10 0 59455 70200.00000 0 2663747.657 -24757574.283 5424746.778 10 0 59455 71100.00000 0 2553038.375 -25257085.862 2229098.203 10 0 59455 72000.00000 0 2364382.321 -25352845.714 -1009980.977 10 0 59455 72900.00000 0 2154244.881 -25036827.271 -4229381.149 10 0 59455 73800.00000 0 1979572.970 -24314755.358 -7366372.950 10 0 59455 74700.00000 0 1895133.732 -23205905.957 -10359842.794 10 0 59455 75600.00000 0 1950949.494 -21742352.161 -13151495.531 10 0 59455 76500.00000 0 2189939.363 -19967688.435 -15686999.466 10 0 59455 77400.00000 0 2645868.772 -17935287.608 -17917050.312 10 0 59455 78300.00000 0 3341694.856 -15706164.858 -19798332.825 10 0 59455 79200.00000 0 4288378.290 -13346539.308 -21294361.206 10 0 59455 80100.00000 0 5484212.049 -10925196.383 -22376182.217 10 0 59455 81000.00000 0 6914695.393 -8510761.875 -23022928.047 10 0 59455 81900.00000 0 8552958.216 -6169001.757 -23222209.224 10 0 59455 82800.00000 0 10360717.585 -3960260.151 -22970341.074 10 0 59455 83700.00000 0 12289726.082 -1937141.337 -22272400.624 10 0 59455 84600.00000 0 14283651.123 -142530.949 -21142114.016 10 0 59455 85500.00000 0 16280306.534 1391962.970 -19601577.613 10 0 59456 0.00000 0 18214143.333 2647086.347 -17680819.096 10 0 59456 900.00000 0 20018896.022 3616490.218 -15417207.251 10 0 59456 1800.00000 0 21630274.589 4306736.420 -12854722.958 10 0 59456 2700.00000 0 22988589.990 4736758.923 -10043104.563 10 0 59456 3600.00000 0 24041205.126 4936806.496 -7036884.798 10 0 59456 4500.00000 0 24744708.942 4946911.723 -3894337.335 10 0 59456 5400.00000 0 25066724.007 4814952.286 -676353.069 10 0 59456 6300.00000 0 24987272.533 4594386.694 2554732.626 10 0 59456 7200.00000 0 24499644.196 4341760.097 5736339.384 10 0 59456 8100.00000 0 23610729.729 4114085.316 8806845.436 10 0 59456 9000.00000 0 22340806.271 3966209.314 11706772.614 10 0 59456 9900.00000 0 20722783.106 3948275.798 14379930.371 10 0 59456 10800.00000 0 18800938.692 4103390.703 16774497.343 10 0 59456 11700.00000 0 16629200.729 4465588.878 18844020.165 10 0 59456 12600.00000 0 14269039.951 5058187.797 20548310.701 10 0 59456 13500.00000 0 11787064.115 5892598.223 21854224.849 10 0 59456 14400.00000 0 9252411.023 6967642.880 22736308.155 10 0 59456 15300.00000 0 6734047.824 8269413.220 23177295.756 10 0 59456 16200.00000 0 4298087.743 9771672.192 23168456.817 10 0 59456 17100.00000 0 2005234.847 11436788.261 22709776.263 10 0 59456 18000.00000 0 -91537.490 13217163.767 21809969.432 10 0 59456 18900.00000 0 -1948978.208 15057099.965 20486328.318 10 0 59456 19800.00000 0 -3535137.489 16895022.560 18764401.041 10 0 59456 20700.00000 0 -4830466.931 18665975.925 16677509.436 10 0 59456 21600.00000 0 -5828394.870 20304282.408 14266112.809 10 0 59456 22500.00000 0 -6535352.559 21746255.478 11577029.059 10 0 59456 23400.00000 0 -6970249.983 22932852.433 8662527.567 10 0 59456 24300.00000 0 -7163423.551 23812154.366 5579311.116 10 0 59456 25200.00000 0 -7155100.481 24341567.804 2387406.722 10 0 59456 26100.00000 0 -6993445.543 24489653.814 -851012.341 10 0 59456 27000.00000 0 -6732273.975 24237506.069 -4072849.403 10 0 59456 27900.00000 0 -6428528.913 23579618.434 -7215326.983 10 0 59456 28800.00000 0 -6139631.920 22524204.577 -10217223.322 10 0 59456 29700.00000 0 -5920820.717 21092955.561 -13020077.255 10 0 59456 30600.00000 0 -5822588.641 19320245.533 -15569336.651 10 0 59456 31500.00000 0 -5888335.774 17251819.299 -17815426.906 10 0 59456 32400.00000 0 -6152332.348 14943017.566 -19714718.082 10 0 59456 33300.00000 0 -6638081.261 12456615.080 -21230371.721 10 0 59456 34200.00000 0 -7357149.217 9860363.115 -22333051.047 10 0 59456 35100.00000 0 -8308515.744 7224339.670 -23001481.487 10 0 59456 36000.00000 0 -9478467.201 4618218.305 -23222851.591 10 0 59456 36900.00000 0 -10841039.715 2108569.427 -22993047.738 10 0 59456 37800.00000 0 -12358991.904 -243694.215 -22316719.329 10 0 59456 38700.00000 0 -13985266.131 -2385622.710 -21207174.393 10 0 59456 39600.00000 0 -15664876.645 -4274190.435 -19686108.657 10 0 59456 40500.00000 0 -17337145.442 -5877834.207 -17783174.185 10 0 59456 41400.00000 0 -18938192.374 -7177506.348 -15535396.445 10 0 59456 42300.00000 0 -20403575.570 -8167201.081 -12986451.477 10 0 59456 43200.00000 0 -21670972.235 -8853934.666 -10185817.210 10 0 59456 44100.00000 0 -22682788.268 -9257182.260 -7187815.197 10 0 59456 45000.00000 0 -23388588.141 -9407796.898 -4050561.163 10 0 59456 45900.00000 0 -23747244.007 -9346457.436 -834844.248 10 0 59456 46800.00000 0 -23728714.626 -9121711.658 2397043.820 10 0 59456 47700.00000 0 -23315380.001 -8787697.456 5582507.375 10 0 59456 48600.00000 0 -22502876.049 -8401638.210 8659850.674 10 0 59456 49500.00000 0 -21300394.209 -8021217.790 11569464.265 10 0 59456 50400.00000 0 -19730433.070 -7701945.470 14254971.450 10 0 59456 51300.00000 0 -17828011.630 -7494621.434 16664313.310 10 0 59456 52200.00000 0 -15639375.976 -7443009.346 18750751.975 10 0 59456 53100.00000 0 -13220252.078 -7581813.866 20473773.199 10 0 59456 54000.00000 0 -10633716.012 -7935048.412 21799871.320 10 0 59456 54900.00000 0 -7947768.673 -8514862.426 22703201.733 10 0 59456 55800.00000 0 -5232714.357 -9320878.388 23166088.266 10 0 59456 56700.00000 0 -2558450.720 -10340067.852 23179375.501 10 0 59456 57600.00000 0 8218.535 -11547173.466 22742618.676 10 0 59456 58500.00000 0 2406137.443 -12905661.200 21864106.672 10 0 59456 59400.00000 0 4582112.505 -14369164.864 20560716.560 10 0 59456 60300.00000 0 6492892.383 -15883364.220 18857601.211 10 0 59456 61200.00000 0 8106730.014 -17388219.374 16787714.692 10 0 59456 62100.00000 0 9404461.836 -18820468.802 14391183.331 10 0 59456 63000.00000 0 10380058.782 -20116286.532 11714533.503 10 0 59456 63900.00000 0 11040625.701 -21213986.649 8809790.415 10 0 59456 64800.00000 0 11405849.289 -22056660.634 5733464.992 10 0 59456 65700.00000 0 11506918.048 -22594635.273 2545448.651 10 0 59456 66600.00000 0 11384960.425 -22787646.015 -692161.872 10 0 59456 67500.00000 0 11089068.159 -22606632.491 -3916285.774 10 0 59456 68400.00000 0 10673989.777 -22035078.854 -7064100.444 10 0 59456 69300.00000 0 10197593.490 -21069841.047 -10074278.911 10 0 59456 70200.00000 0 9718208.707 -19721425.144 -12888196.902 10 0 59456 71100.00000 0 9291960.482 -18013704.442 -15451084.647 10 0 59456 72000.00000 0 8970211.318 -15983087.163 -17713099.838 10 0 59456 72900.00000 0 8797219.795 -13677169.998 -19630300.231 10 0 59456 73800.00000 0 8808115.871 -11152934.479 -21165496.777 10 0 59456 74700.00000 0 9027278.699 -8474562.446 -22288970.852 10 0 59456 75600.00000 0 9467185.357 -5710962.512 -22979042.370 10 0 59456 76500.00000 0 10127778.552 -2933111.090 -23222478.718 10 0 59456 77400.00000 0 10996379.199 -211318.945 -23014737.678 10 0 59456 78300.00000 0 12048146.753 2387463.410 -22360040.945 10 0 59456 79200.00000 0 13247067.113 4802190.279 -21271277.958 10 0 59456 80100.00000 0 14547425.938 6980010.776 -19769742.965 10 0 59456 81000.00000 0 15895705.053 8878210.820 -17884711.268 10 0 59456 81900.00000 0 17232822.193 10465728.427 -15652863.394 10 0 59456 82800.00000 0 18496620.158 11724181.357 -13117568.732 10 0 59456 83700.00000 0 19624501.276 12648366.641 -10328042.578 10 0 59456 84600.00000 0 20556097.167 13246213.330 -7338392.796 10 0 59456 85500.00000 0 21235862.360 13538192.377 -4206574.361 10 0 59457 0.00000 0 21615483.655 13556210.081 -993271.708 10 0 59457 900.00000 0 21656004.330 13342032.739 2239270.366 10 0 59457 1800.00000 0 21329575.565 12945309.516 5428444.019 10 0 59457 2700.00000 0 20620759.930 12421277.077 8512482.657 10 0 59457 3600.00000 0 19527334.212 11828242.568 11431648.520 10 0 59457 4500.00000 0 18060556.076 11224950.690 14129381.520 10 0 59457 5400.00000 0 16244883.257 10667945.266 16553387.693 10 0 59457 6300.00000 0 14117155.616 10209035.908 18656646.877 10 0 59457 7200.00000 0 11725272.896 9892976.012 20398320.629 10 0 59457 8100.00000 0 9126421.575 9755449.561 21744543.315 10 0 59457 9000.00000 0 6384922.843 9821451.521 22669081.417 10 0 59457 9900.00000 0 3569789.490 10104130.367 23153848.321 10 0 59457 10800.00000 0 752091.454 10604142.259 23189264.471 10 0 59457 11700.00000 0 -1997762.036 11309545.255 22774455.431 10 0 59457 12600.00000 0 -4612711.982 12196239.531 21917283.163 10 0 59457 13500.00000 0 -7031599.993 13228936.838 20634208.875 10 0 59457 14400.00000 0 -9201473.927 14362620.200 18949988.793 10 0 59457 15300.00000 0 -11079552.950 15544434.017 16897207.405 10 0 59457 16200.00000 0 -12634769.958 16715926.277 14515655.902 10 0 59457 17100.00000 0 -13848826.687 17815549.256 11851566.733 10 0 59457 18000.00000 0 -14716716.962 18781313.461 8956718.343 10 0 59457 18900.00000 0 -15246695.976 19553482.507 5887427.122 10 0 59457 19800.00000 0 -15459696.927 20077194.230 2703446.160 10 0 59457 20700.00000 0 -15388219.909 20304895.965 -533207.071 10 0 59457 21600.00000 0 -15074740.747 20198489.474 -3759470.350 10 0 59457 22500.00000 0 -14569708.102 19731093.150 -6912478.599 10 0 59457 23400.00000 0 -13929214.995 18888345.502 -9930802.216 10 0 59457 24300.00000 0 -13212444.963 17669193.533 -12755656.277 10 0 59457 25200.00000 0 -12479002.600 16086131.806 -15332055.653 10 0 59457 26100.00000 0 -11786243.037 14164881.614 -17609892.391 10 0 59457 27000.00000 0 -11186714.602 11943523.651 -19544913.745 10 0 59457 27900.00000 0 -10725823.633 9471120.726 -21099581.598 10 0 59457 28800.00000 0 -10439820.482 6805888.722 -22243796.722 10 0 59457 29700.00000 0 -10354191.561 4012992.748 -22955474.477 10 0 59457 30600.00000 0 -10482524.710 1162060.793 -23220961.726 10 0 59457 31500.00000 0 -10825894.737 -1675481.245 -23035287.985 10 0 59457 32400.00000 0 -11372793.910 -4429142.493 -22402247.233 10 0 59457 33300.00000 0 -12099609.123 -7032054.983 -21334309.942 10 0 59457 34200.00000 0 -12971624.606 -9423505.749 -19852368.140 10 0 59457 35100.00000 0 -13944507.081 -11551209.391 -17985319.264 10 0 59457 36000.00000 0 -14966210.376 -13373228.437 -15769497.473 10 0 59457 36900.00000 0 -15979219.104 -14859463.569 -13247963.794 10 0 59457 37800.00000 0 -16923037.106 -15992653.828 -10469668.964 10 0 59457 38700.00000 0 -17736816.336 -16768847.225 -7488505.044 10 0 59457 39600.00000 0 -18362016.084 -17197324.029 -4362264.012 10 0 59457 40500.00000 0 -18744981.303 -17299977.725 -1151523.098 10 0 59457 41400.00000 0 -18839332.178 -17110180.965 2081522.037 10 0 59457 42300.00000 0 -18608064.922 -16671185.039 5274254.087 10 0 59457 43200.00000 0 -18025275.790 -16034120.681 8364838.293 10 0 59457 44100.00000 0 -17077435.840 -15255684.404 11293411.348 10 0 59457 45000.00000 0 -15764162.601 -14395607.436 14003232.542 10 0 59457 45900.00000 0 -14098455.529 -13514013.318 16441775.578 10 0 59457 46800.00000 0 -12106384.213 -12668774.671 18561740.576 10 0 59457 47700.00000 0 -9826240.912 -11912979.688 20321967.217 10 0 59457 48600.00000 0 -7307190.980 -11292614.330 21688231.906 10 0 59457 49500.00000 0 -4607475.392 -10844557.290 22633913.840 10 0 59457 50400.00000 0 -1792238.225 -10594971.995 23140517.178 10 0 59457 51300.00000 0 1068932.626 -10558163.510 23198039.030 10 0 59457 52200.00000 0 3904651.143 -10735949.066 22805175.665 10 0 59457 53100.00000 0 6644456.836 -11117569.735 21969362.123 10 0 59457 54000.00000 0 9221504.374 -11680148.241 20706643.389 10 0 59457 54900.00000 0 11575108.128 -12389675.080 19041378.341 10 0 59457 55800.00000 0 13653035.959 -13202482.833 17005780.841 10 0 59457 56700.00000 0 15413456.655 -14067147.763 14639305.557 10 0 59457 57600.00000 0 16826459.391 -14926739.330 11987889.255 10 0 59457 58500.00000 0 17875081.169 -15721323.062 9103061.502 10 0 59457 59400.00000 0 18555798.778 -16390610.840 6040941.665 10 0 59457 60300.00000 0 18878464.387 -16876645.855 2861141.712 10 0 59457 61200.00000 0 18865687.461 -17126407.443 -374403.205 10 0 59457 62100.00000 0 18551689.537 -17094224.028 -3602652.657 10 0 59457 63000.00000 0 17980681.013 -16743890.348 -6760702.358 10 0 59457 63900.00000 0 17204829.689 -16050397.632 -9787023.302 10 0 59457 64800.00000 0 16281908.470 -15001202.057 -12622673.008 10 0 59457 65700.00000 0 15272723.237 -13596976.591 -15212453.895 10 0 59457 66600.00000 0 14238431.244 -11851813.669 -17505995.032 10 0 59457 67500.00000 0 13237864.683 -9792869.658 -19458735.550 10 0 59457 68400.00000 0 12324973.461 -7459465.906 -21032790.308 10 0 59457 69300.00000 0 11546495.591 -4901684.270 -22197681.137 10 0 59457 70200.00000 0 10939953.399 -2178516.196 -22930920.084 10 0 59457 71100.00000 0 10532059.415 644357.084 -23218434.291 10 0 59457 72000.00000 0 10337598.057 3497060.387 -23054825.358 10 0 59457 72900.00000 0 10358828.817 6308192.640 -22443459.453 10 0 59457 73800.00000 0 10585434.571 9007556.621 -21396387.581 10 0 59457 74700.00000 0 10995015.643 11528837.593 -19934098.655 10 0 59457 75600.00000 0 11554107.494 13812120.716 -18085110.997 10 0 59457 76500.00000 0 12219678.082 15806144.088 -15885410.802 10 0 59457 77400.00000 0 12941041.159 17470195.401 -13377748.808 10 0 59457 78300.00000 0 13662104.523 18775575.191 -10610808.935 10 0 59457 79200.00000 0 14323858.526 19706567.668 -7638264.891 10 0 59457 80100.00000 0 14867000.254 20260880.453 -4517742.838 10 0 59457 81000.00000 0 15234583.260 20449536.582 -1309709.838 10 0 59457 81900.00000 0 15374581.749 20296224.748 1923690.879 10 0 59457 82800.00000 0 15242261.719 19836136.014 5119835.675 10 0 59457 83700.00000 0 14802259.576 19114336.545 8216824.766 10 0 59457 84600.00000 0 14030280.852 18183744.882 11154672.296 10 0 59457 85500.00000 0 12914347.425 17102798.616 13876459.736 99